229  
ASUS45 KREV 221010  
RWRNV  
NEVADA REGIONAL WEATHER ROUNDUP  
NATIONAL WEATHER SERVICE RENO NV  
200 AM PST WED NOV 22 2017  
 
NOTE: "FAIR" INDICATES FEW OR NO CLOUDS BELOW 12,000 FEET WITH NO  
SIGNIFICANT WEATHER AND/OR S TO VISIBILITY
.  
 
NVZ001-003-004-221100-  
WESTERN NEVADA  
 
CITY SKY/WX TMP DP RH WIND PRES REMARKS
 
RENO PTCLDY 43 39 86 S3 30.35R  
CARSON CITY FAIR 39 37 93 CALM 30.37R  
MINDEN FAIR 32 32 100 SE3 30.37R  
SLIDE MTN N/A 41 36 81 SW25 N/A  
PYRAMID LAKE N/A 50 N/A N/A W2 N/A  
FALLON CLEAR 40 34 79 CALM 30.32R  
LOVELOCK PTCLDY 36 31 82 NW3 30.32S  
HAWTHORNE CLEAR 52 34 50 S6 30.32S  

 
 
NVZ002-CAZ072-073-221100-  
NORTHERN AND CENTRAL SIERRA  
 
CITY SKY/WX TMP DP RH WIND PRES REMARKS
 
S. LAKE TAHOE FOG 35 33 92 SW3 30.42R VSB 3/4  
TRUCKEE FOG 32 32 100 CALM 30.41F VSB 1/4  
SQUAW VLY 8000 N/A 45 36 70 S7 N/A  
SUSANVILLE CLEAR 39 37 93 W5 30.32S  
BLUE CANYON CLEAR 58 33 39 E5 30.36S  
MAMMOTH LAKES FAIR 29 29 98 N3 30.49S FOG  

 
 
NVZ030-031-036-221100-  
NORTHERN NEVADA  
 
CITY SKY/WX TMP DP RH WIND PRES REMARKS
 
ELKO MOCLDY 35 32 88 CALM 30.40S  
WINNEMUCCA CLEAR 39 35 86 CALM 30.33S  
WENDOVER PTCLDY 40 36 86 CALM 30.39R  

 
 
NVZ035-037-221100-  
CENTRAL NEVADA  
 
CITY SKY/WX TMP DP RH WIND PRES REMARKS
 
ELY CLEAR 32 28 85 S16 30.46S  
EUREKA N/A 41 32 70 SW10 30.43R  

 
 
NVZ013-014-221100-  
SOUTH CENTRAL NEVADA  
 
CITY SKY/WX TMP DP RH WIND PRES REMARKS
 
TONOPAH PTCLDY 41 30 65 N9 30.42R  

 
 
NVZ017-020-022-221100-  
SOUTHERN NEVADA  
 
CITY SKY/WX TMP DP RH WIND PRES REMARKS
 
LAS VEGAS MOCLDY 57 30 35 S5 30.24S  
N. LAS VEGAS CLEAR 54 31 41 CALM 30.24S  
NELLIS AFB CLEAR 51 16 25 NE3 30.24R  
HENDERSON CLEAR 52 27 38 SE6 30.27S  
MERCURY CLEAR 52 33 48 E3 30.28S  

 
 
 
CLICK HERE TO GO TO PREVIOUS BULLETINS.

The Nexlab NV Page Main Text Page